CAPE
318 475 893 1151 1187 1197 1363 1376 1304 1137 1350 1121 1235 1203 1335 1414 1418 1451 1599 1675 1630 1688 1365 1340 1325 1261 1199 1188 1160 1032 1145 984 838 854 869 1031 1163 1077 921 774 824 526 929
354 334 818 1170 1219 1199 1323 1461 1264 1245 1121 1152 1177 891 1209 1575 1560 1647 1684 1686 1612 1392 1128 1109 1018 988 1062 1073 1046 1032 1036 1045 897 710 667 720 747 999 1008 1132 859 413 548
459 440 222 1020 1126 1147 968 1070 1310 1127 999 952 1006 1076 1149 1336 1590 1596 1652 1642 1540 1463 1084 1137 1003 895 745 763 909 888 855 945 799 470 581 98 457 566 628 1018 1133 730 388
515 270 357 789 952 802 845 888 924 979 982 1022 1007 1166 1246 1156 1196 1346 1339 1519 1585 1394 1110 1135 777 465 409 591 665 720 683 647 549 606 175 77 53 241 194 404 565 802 788
243 45 219 388 553 684 718 780 815 824 902 1057 1085 1084 1152 1031 994 1166 1239 1305 1457 1218 1039 856 461 271 253 266 639 706 528 442 418 459 337 319 271 255 163 90 97 167 541
4 36 2 74 341 389 358 575 712 744 821 935 1003 887 733 754 722 895 1059 1102 1075 943 785 545 274 290 320 262 610 540 426 518 658 203 213 376 368 394 216 178 255 401 524
0 0 1 0 43 115 183 222 388 547 589 747 678 659 456 256 273 480 553 714 765 709 563 361 226 372 481 403 556 327 193 294 406 122 149 237 529 423 250 55 159 300 242
9 1 58 14 10 13 72 148 127 142 314 483 507 536 496 356 160 132 296 338 336 331 288 226 201 259 418 390 254 167 184 229 243 197 204 242 312 132 274 192 193 92 62
249 25 60 249 270 157 105 40 128 40 18 27 82 174 173 253 271 128 10 167 243 225 163 120 105 96 126 133 113 93 46 29 733 595 186 242 184 63 95 131 188 80 6
19 17 50 102 295 371 629 220 122 34 9 36 80 28 0 114 94 111 92 170 108 169 159 139 82 51 22 92 122 104 76 26 735 604 494 426 252 61 25 20 129 66 23
8 79 101 130 198 225 317 582 532 180 127 49 74 54 389 282 530 486 283 146 231 69 122 123 71 0 0 0 0 10 28 725 576 571 525 158 327 229 295 57 42 62 15
47 29 184 25 37 21 187 346 335 390 410 137 76 35 334 876 735 399 296 98 124 93 82 46 9 0 0 0 0 0 358 469 460 536 613 218 521 499 587 124 1 41 11
0 4 1 12 0 36 14 88 100 259 309 348 316 304 180 216 475 807 944 940 900 361 691 363 338 82 12 0 0 132 345 322 277 384 391 67 336 641 363 437 68 35 4
0 0 0 0 0 0 0 0 0 0 0 50 191 320 281 324 192 116 307 336 862 1015 997 765 461 575 449 74 32 194 359 449 686 707 556 175 3 346 671 597 393 158 9
0 0 0 0 0 0 0 0 0 0 0 0 0 0 2 59 282 261 161 227 212 169 581 1010 805 739 615 298 411 420 437 691 904 959 973 478 109 140 593 745 376 279 105
0 0 0 0 0 0 0 0 0 0 0 0 0 0 0 0 0 0 43 156 276 127 148 451 860 857 812 628 587 698 794 1034 1052 1156 1053 988 423 173 238 721 914 475 419
0 0 0 0 0 0 0 0 0 0 0 0 0 0 0 0 0 0 0 4 9 24 257 237 176 343 723 772 682 616 810 766 873 781 938 924 669 405 181 299 640 982 681
0 0 0 0 0 0 0 0 0 0 0 0 0 0 0 0 0 0 0 1 7 5 7 9 21 117 387 202 157 234 492 568 518 672 648 1068 1257 921 498 269 223 415 811
0 0 0 0 0 0 0 0 0 0 0 0 0 0 0 0 0 0 0 0 0 0 1 1 11 25 63 106 103 181 275 410 357 289 420 609 965 1152 883 473 352 202 249
0 0 0 0 0 0 0 0 0 0 0 0 0 0 0 0 0 0 0 0 0 0 0 0 0 6 20 7 0 214 437 513 503 367 328 443 442 821 1153 1210 1021 665 316
0 0 0 0 0 0 0 0 0 0 0 0 0 0 0 0 0 0 0 0 0 0 0 0 0 0 0 0 0 1 139 498 678 420 405 411 509 733 1019 1128 1293 1139 810
0 0 0 0 0 0 0 0 0 0 0 0 0 0 0 0 0 0 0 0 0 0 0 0 0 0 0 0 5 4 32 253 234 265 486 678 630 591 651 635 798 934 1041
0 0 0 0 0 0 0 0 0 0 0 0 0 0 0 0 0 0 0 0 0 0 0 0 0 0 0 0 5 3 3 9 0 38 47 216 135 97 285 437 530 596 663
0 0 0 0 0 0 0 0 0 0 0 0 0 0 0 0 0 0 0 0 0 0 0 0 0 0 0 0 0 0 1 5 22 0 0 0 0 5 10 10 100 301 509
0 0 0 0 0 0 0 0 0 0 0 0 0 0 0 0 0 0 0 0 0 0 0 0 0 0 0 0 0 0 1 4 6 12 1 0 0 0 0 0 0 3 205
0 0 0 0 0 0 0 0 0 0 0 0 0 0 0 0 0 0 0 0 0 0 0 0 0 0 0 0 0 0 0 4 3 0 0 2 0 0 0 0 63 109 22
CIN
0 0 -7 -2 -2 -3 -1 0 -1 -3 -1 -2 -2 -3 -2 -2 -3 -2 -1 0 0 0 0 0 0 0 0 0 0 -1 -3 -5 -6 -4 0 0 0 0 -1 -8 -8 -1 -2
0 0 -7 -1 -1 -2 -1 0 0 0 -2 0 -1 -4 -4 -1 -3 -2 -1 -1 0 0 0 0 -2 -3 -1 0 0 0 -2 -3 -3 -11 -11 -7 0 0 0 -3 -2 -18 -8
-1 0 -1 0 0 0 0 0 0 0 0 0 -1 -3 -4 -3 0 0 -1 -1 -1 0 0 0 -5 -7 -16 -14 -4 -3 -3 -2 -7 -56 -40 -76 -16 -7 -5 0 0 -1 -23
0 0 0 0 0 0 0 0 0 0 -1 -1 -1 -1 -1 -1 -1 0 0 0 0 0 0 -1 -19 -43 -65 -22 -17 -22 -37 -48 -71 -75 -60 -104 -136 -84 -80 -30 -11 -1 0
-2 -49 0 0 0 0 0 0 0 0 -2 -2 -2 -1 -1 0 0 -1 0 -1 0 0 -2 -9 -38 -93 -115 -117 -25 -19 -61 -93 -114 -77 -19 -26 -46 -88 -109 -132 -132 -94 -29
-2 -55 -1 -40 -3 -6 -6 0 0 -4 -12 -1 -1 -3 -3 0 0 0 -1 -1 0 -1 -17 -35 -77 -97 -111 -126 -47 -55 -88 -84 -97 -42 -66 -48 -44 -64 -105 -112 -83 -51 -25
0 0 0 0 -49 -63 -34 -17 -1 0 -1 -2 -2 -1 -4 -8 -12 -1 -2 -1 0 -1 -12 -40 -79 -74 -91 -93 -56 -102 -148 -127 -14 -45 -54 -56 -47 -73 -103 -171 -121 -85 -89
-82 -65 -48 -18 -38 -107 -80 -41 -36 -34 -5 0 0 0 -1 -7 -34 -52 -16 -12 -10 -15 -23 -38 -64 -65 -60 -73 -107 -138 -146 -144 -56 -44 -45 -36 -100 -159 -114 -132 -126 -155 -168
-3 -68 -52 -9 -13 -43 -75 -128 -63 -102 -128 -123 -88 -29 -24 -19 -22 -56 -59 -51 -37 -40 -51 -83 -101 -123 -54 -50 -61 -83 -117 -92 0 -1 -55 -34 -129 -154 -150 -150 -138 -199 -70
-58 -70 -58 -25 -10 -6 0 -25 -18 -58 -190 -141 -70 -145 0 -69 -67 -67 -89 -65 -94 -69 -72 -74 -97 -68 -186 -50 -44 -57 -77 -109 0 0 0 -29 -104 -172 -211 -215 -119 -178 -267
-91 -42 -35 -22 -22 -15 -11 0 -4 -15 -19 -60 -71 -112 -13 0 0 -1 -55 -79 -57 -145 -117 -114 -124 0 0 0 0 -71 -107 0 0 0 0 -114 -82 -87 -71 -161 -184 -154 -236
-60 -26 -29 -81 -73 -68 -18 -6 -7 -8 -7 -24 -67 -98 -26 0 -1 -15 -12 -68 -74 -87 -104 -203 -107 0 0 0 0 0 -7 0 0 0 0 -108 -49 -26 -16 -104 -119 -164 -248
-10 -133 -18 -110 0 -76 -103 -33 -25 -6 -4 -2 -4 -7 -30 -32 -9 0 0 0 0 -6 0 -15 -17 -61 -35 0 0 -11 0 -2 0 0 -3 -50 -80 -14 -28 -25 -106 -148 -10
0 0 0 0 0 0 0 0 0 0 0 -60 -8 0 -1 -5 -24 -26 -16 -19 -1 0 0 0 0 0 -4 -68 -99 -31 -8 -1 0 0 -2 -25 -10 -77 -12 -9 -23 -68 -50
0 0 0 0 0 0 0 0 0 0 0 0 0 0 -10 -48 0 -3 -13 -3 -21 -30 -8 0 0 0 0 -3 -1 -2 0 0 0 0 0 -12 -27 -107 -51 -15 -29 -35 -72
0 0 0 0 0 0 0 0 0 0 0 0 0 0 0 0 0 0 -8 -8 0 -19 -24 -5 0 0 0 0 0 0 0 0 0 0 0 -2 -21 -16 -42 -46 -15 -33 -32
0 0 0 0 0 0 0 0 0 0 0 0 0 0 0 0 0 0 0 0 0 0 0 -1 -18 -8 0 0 -6 -16 -4 -9 0 0 0 0 -6 -15 -22 -5 -63 -17 -29
0 0 0 0 0 0 0 0 0 0 0 0 0 0 0 0 0 0 0 0 0 0 0 0 0 -18 -1 -36 -53 -74 -10 -38 -42 -24 -2 -1 0 0 -7 -29 -14 -75 -30
0 0 0 0 0 0 0 0 0 0 0 0 0 0 0 0 0 0 0 0 0 0 0 0 0 0 -1 -16 -2 -14 -10 -30 -39 -58 -42 -18 -10 0 0 -11 -24 -24 -50
0 0 0 0 0 0 0 0 0 0 0 0 0 0 0 0 0 0 0 0 0 0 0 0 0 0 -1 0 0 0 -1 -1 -12 -23 -21 -25 0 0 0 0 -3 -16 -29
0 0 0 0 0 0 0 0 0 0 0 0 0 0 0 0 0 0 0 0 0 0 0 0 0 0 0 0 0 0 -5 0 0 0 0 -1 0 0 -1 0 0 0 -4
0 0 0 0 0 0 0 0 0 0 0 0 0 0 0 0 0 0 0 0 0 0 0 0 0 0 0 0 0 0 -32 -1 -4 0 0 -1 0 0 0 0 0 0 0
0 0 0 0 0 0 0 0 0 0 0 0 0 0 0 0 0 0 0 0 0 0 0 0 0 0 0 0 0 0 0 0 0 -1 -4 0 0 -3 -2 0 0 0 0
0 0 0 0 0 0 0 0 0 0 0 0 0 0 0 0 0 0 0 0 0 0 0 0 0 0 0 0 0 0 0 0 0 0 0 0 0 -2 -2 -48 -12 -15 -1
0 0 0 0 0 0 0 0 0 0 0 0 0 0 0 0 0 0 0 0 0 0 0 0 0 0 0 0 0 0 0 0 0 0 0 0 0 0 0 0 -10 -2 -3
0 0 0 0 0 0 0 0 0 0 0 0 0 0 0 0 0 0 0 0 0 0 0 0 0 0 0 0 0 0 0 0 0 0 0 0 0 0 0 0 -1 -4 -20
Wind_Speed
12 8 13 11 13 11 9 9 9 8 4 4 2 5 7 4 3 2 2 2 3 4 4 7 9 10 10 9 8 7 6 5 8 8 10 9 8 6 4 8 7 6 11
11 6 11 12 13 11 10 8 8 8 6 5 5 6 8 7 6 3 2 3 4 6 5 6 8 9 10 9 8 6 7 6 4 5 7 10 10 9 9 9 10 8 9
10 10 4 11 9 8 8 8 9 7 6 6 7 7 7 8 6 4 2 1 5 6 7 6 5 5 6 9 9 7 8 7 5 5 9 nan 8 7 7 6 4 3 4
6 6 7 10 7 4 6 6 7 8 8 8 6 5 7 9 8 4 3 3 5 6 7 4 3 3 3 6 10 11 9 8 9 13 2 nan nan 7 7 7 8 7 2
5 nan 7 9 7 4 3 4 5 5 8 11 10 7 6 8 9 7 3 4 5 7 5 2 1 1 5 8 10 9 10 10 14 14 2 3 6 8 5 nan nan 8 15
nan nan nan nan 6 4 4 4 2 3 5 6 9 12 9 8 8 8 7 5 5 5 4 3 2 2 6 11 13 11 9 13 18 5 4 1 7 5 4 7 5 8 9
nan nan nan nan nan 5 3 2 1 2 3 4 4 9 12 11 8 7 8 8 7 5 2 2 3 3 5 11 14 12 11 11 10 3 5 4 5 3 5 nan 7 9 8
nan nan nan nan nan nan nan 4 3 2 3 2 3 4 6 9 12 11 8 7 8 8 7 5 5 4 7 12 12 10 9 11 8 4 2 7 8 5 4 6 9 nan nan
9 nan nan 7 7 11 11 nan 7 nan nan nan nan 4 3 3 5 10 nan 12 9 8 8 8 8 nan 6 6 10 nan nan nan 5 6 5 8 12 nan nan 8 9 nan nan
nan nan nan 11 11 12 10 15 14 nan nan nan nan nan nan 4 nan 7 nan 14 13 13 11 11 nan nan nan nan 5 7 nan nan 9 8 8 12 13 nan nan nan 10 nan nan
nan nan 18 17 16 15 14 16 15 16 18 nan nan nan 4 10 8 6 16 9 8 nan 13 14 nan nan nan nan nan nan nan 8 8 9 9 21 15 13 14 nan nan nan nan
nan nan 20 nan nan nan 18 19 18 20 21 20 nan nan 13 14 14 8 9 nan 8 nan nan nan nan nan nan nan nan nan 7 12 9 9 11 22 16 13 15 15 nan nan nan
nan nan nan nan nan nan nan nan 21 23 23 25 25 21 21 16 17 19 14 17 16 18 14 14 14 nan nan nan nan 14 14 11 11 13 20 nan 16 13 14 17 nan nan nan
nan nan nan nan nan nan nan nan nan nan nan nan 30 30 29 27 26 27 26 24 21 22 19 19 18 20 15 nan nan 13 14 15 15 16 19 23 nan 15 12 16 17 13 nan
nan nan nan nan nan nan nan nan nan nan nan nan nan nan nan nan 29 30 29 28 27 26 25 22 22 21 21 20 19 17 15 14 15 19 20 26 20 16 14 14 13 15 13
nan nan nan nan nan nan nan nan nan nan nan nan nan nan nan nan nan nan nan 34 32 29 28 28 29 25 24 24 22 22 23 21 19 20 21 25 25 20 15 12 13 13 15
nan nan nan nan nan nan nan nan nan nan nan nan nan nan nan nan nan nan nan nan nan nan 33 32 32 30 28 29 28 31 26 24 25 25 25 25 27 23 19 16 14 15 14
nan nan nan nan nan nan nan nan nan nan nan nan nan nan nan nan nan nan nan nan nan nan nan nan nan 33 33 32 31 34 27 25 19 16 21 34 28 26 25 19 17 16 15
nan nan nan nan nan nan nan nan nan nan nan nan nan nan nan nan nan nan nan nan nan nan nan nan nan nan nan 39 31 28 30 29 29 28 21 19 32 23 25 28 21 20 18
nan nan nan nan nan nan nan nan nan nan nan nan nan nan nan nan nan nan nan nan nan nan nan nan nan nan nan nan nan 29 29 27 27 25 25 26 20 14 24 21 26 23 19
nan nan nan nan nan nan nan nan nan nan nan nan nan nan nan nan nan nan nan nan nan nan nan nan nan nan nan nan nan nan 31 30 31 31 24 21 21 25 23 20 25 27 27
nan nan nan nan nan nan nan nan nan nan nan nan nan nan nan nan nan nan nan nan nan nan nan nan nan nan nan nan nan nan nan 34 47 32 36 32 35 30 28 30 23 20 26
nan nan nan nan nan nan nan nan nan nan nan nan nan nan nan nan nan nan nan nan nan nan nan nan nan nan nan nan nan nan nan nan nan nan nan 41 40 nan 32 34 33 32 28
nan nan nan nan nan nan nan nan nan nan nan nan nan nan nan nan nan nan nan nan nan nan nan nan nan nan nan nan nan nan nan nan nan nan nan nan nan nan nan nan 37 32 32
nan nan nan nan nan nan nan nan nan nan nan nan nan nan nan nan nan nan nan nan nan nan nan nan nan nan nan nan nan nan nan nan nan nan nan nan nan nan nan nan nan nan 46
nan nan nan nan nan nan nan nan nan nan nan nan nan nan nan nan nan nan nan nan nan nan nan nan nan nan nan nan nan nan nan nan nan nan nan nan nan nan nan nan nan 53 nan
Wind_Direction
116 106 112 101 90 85 80 91 92 81 52 15 45 129 132 140 132 66 356 268 275 277 308 329 324 313 314 315 303 290 269 244 236 251 244 235 235 224 164 109 79 179 167
108 112 125 118 100 90 88 98 92 74 50 61 87 122 140 174 182 185 199 275 287 294 292 318 329 346 355 346 336 301 288 278 268 271 294 257 227 219 202 176 176 192 186
140 134 134 113 100 98 99 103 112 104 86 94 104 134 166 194 196 200 199 262 292 278 299 294 298 320 347 5 2 330 303 303 327 39 69 nan 240 224 223 206 174 178 180
154 134 152 128 114 110 91 87 96 117 116 119 133 144 178 197 204 223 299 315 313 308 313 290 296 308 2 4 359 360 346 341 28 56 13 nan nan 242 210 203 190 173 160
170 nan 174 150 146 142 121 97 93 101 122 124 145 175 214 212 208 221 246 303 325 335 334 278 179 70 41 24 8 1 0 17 53 69 280 230 254 261 253 nan nan 179 185
nan nan nan nan 163 170 177 158 139 114 110 129 153 170 199 211 214 219 239 258 289 335 356 315 222 131 56 29 12 360 6 38 63 330 314 243 238 268 246 234 216 197 200
nan nan nan nan nan 223 207 182 177 200 148 142 178 177 184 195 206 220 241 250 258 264 254 238 196 208 306 348 353 2 12 55 78 329 327 295 276 293 260 nan 243 245 237
nan nan nan nan nan nan nan 257 225 213 229 244 196 189 194 196 198 207 225 246 262 262 259 249 241 248 300 321 333 344 4 53 15 335 342 294 292 302 283 269 274 nan nan
240 nan nan 256 288 281 248 nan 247 nan nan nan nan 218 201 223 223 222 nan 228 237 248 254 264 264 nan 273 318 335 nan nan nan 48 314 340 328 320 nan nan 282 277 nan nan
nan nan nan 251 273 278 267 250 257 nan nan nan nan nan nan 42 nan 304 nan 247 234 239 239 239 nan nan nan nan 314 344 nan nan 18 330 308 291 325 nan nan nan 302 nan nan
nan nan 261 258 268 263 253 263 257 260 273 nan nan nan 315 258 241 244 264 249 244 nan 255 254 nan nan nan nan nan nan nan 339 314 327 325 310 331 340 337 nan nan nan nan
nan nan 261 nan nan nan 280 283 281 278 277 269 nan nan 274 286 271 264 275 nan 277 nan nan nan nan nan nan nan nan nan 304 269 298 289 296 315 334 334 331 329 nan nan nan
nan nan nan nan nan nan nan nan 282 285 283 281 268 265 272 264 262 265 262 271 265 287 280 288 292 nan nan nan nan 257 250 256 261 270 279 nan 323 333 321 323 nan nan nan
nan nan nan nan nan nan nan nan nan nan nan nan 274 273 274 276 268 271 271 261 251 259 254 251 255 259 264 nan nan 268 269 257 255 253 272 296 nan 319 322 318 319 322 nan
nan nan nan nan nan nan nan nan nan nan nan nan nan nan nan nan 280 276 269 271 266 259 250 255 254 251 256 271 268 267 264 259 257 254 248 286 288 295 306 311 306 314 314
nan nan nan nan nan nan nan nan nan nan nan nan nan nan nan nan nan nan nan 276 273 266 262 255 247 253 252 255 261 256 247 240 250 249 248 264 283 282 281 291 301 298 308
nan nan nan nan nan nan nan nan nan nan nan nan nan nan nan nan nan nan nan nan nan nan 267 264 262 255 248 251 255 261 251 254 248 244 243 237 263 280 278 277 279 287 294
nan nan nan nan nan nan nan nan nan nan nan nan nan nan nan nan nan nan nan nan nan nan nan nan nan 265 266 266 260 254 260 265 265 261 269 251 233 238 277 278 276 274 282
nan nan nan nan nan nan nan nan nan nan nan nan nan nan nan nan nan nan nan nan nan nan nan nan nan nan nan 263 265 272 285 290 294 284 284 306 247 236 232 265 276 275 277
nan nan nan nan nan nan nan nan nan nan nan nan nan nan nan nan nan nan nan nan nan nan nan nan nan nan nan nan nan 273 285 287 285 281 283 286 291 251 242 242 260 265 277
nan nan nan nan nan nan nan nan nan nan nan nan nan nan nan nan nan nan nan nan nan nan nan nan nan nan nan nan nan nan 270 283 286 277 279 271 272 273 287 270 252 245 262
nan nan nan nan nan nan nan nan nan nan nan nan nan nan nan nan nan nan nan nan nan nan nan nan nan nan nan nan nan nan nan 260 263 267 264 259 253 255 257 260 259 252 245
nan nan nan nan nan nan nan nan nan nan nan nan nan nan nan nan nan nan nan nan nan nan nan nan nan nan nan nan nan nan nan nan nan nan nan 260 253 nan 251 248 247 242 249
nan nan nan nan nan nan nan nan nan nan nan nan nan nan nan nan nan nan nan nan nan nan nan nan nan nan nan nan nan nan nan nan nan nan nan nan nan nan nan nan 248 247 257
nan nan nan nan nan nan nan nan nan nan nan nan nan nan nan nan nan nan nan nan nan nan nan nan nan nan nan nan nan nan nan nan nan nan nan nan nan nan nan nan nan nan 237
nan nan nan nan nan nan nan nan nan nan nan nan nan nan nan nan nan nan nan nan nan nan nan nan nan nan nan nan nan nan nan nan nan nan nan nan nan nan nan nan nan 245 nan